Simultaneous Nadir Overpasses (SNOs) Predictions

Prediction of SNOs between GOES-16 and TERRA Satellite Orbit:

Table of predicted SNOs for the next 14.0 days since TLE Epoch: 6/15/2019
Index Date Time (GOES-16) GOES-16 Lat,Lon TERRA Lat,Lon Distance(km) Time Diff (sec)
1 06/16/2019 15:30:13 -0.01, -75.18 -0.00, -75.29 11.99 80
2 06/18/2019 15:20:40 -0.01, -75.17 -0.58, -72.32 322.93 80
3 06/19/2019 03:42:04 0.00, -75.16 -0.47, -77.52 268.49 80
4 06/21/2019 03:27:12 -0.00, -75.15 0.11, -74.55 67.16 80
5 06/23/2019 03:15:00 -0.01, -75.14 0.76, -71.60 403.43 80
6 06/23/2019 15:36:14 0.01, -75.15 0.35, -76.75 182.09 80
7 06/25/2019 15:26:42 0.01, -75.15 -0.30, -73.80 155.01 80
8 06/26/2019 03:48:06 -0.01, -75.15 -0.81, -78.99 435.51 80
9 06/27/2019 15:14:30 0.01, -75.16 -0.89, -70.83 492.58 80
10 06/28/2019 03:35:53 -0.01, -75.16 -0.22, -76.02 97.89 80




NCC Satellite Simultaneous Nadir Overpasses (SNOs) Prediction Service
